Simultaneous Nadir Overpasses (SNOs) Predictions

Prediction of SNOs between GOES-17 and TERRA Satellite Orbit:

Table of predicted SNOs for the next 14.0 days since TLE Epoch: 3/9/2024
Index Date Time (GOES-17) GOES-17 Lat,Lon TERRA Lat,Lon Distance(km) Time Diff (sec)
1 03/09/2024 04:49:41 0.00,-104.69 0.05,-104.55 16.68 80
2 03/11/2024 04:32:42 0.01,-104.69 0.93,-100.45 482.82 80
3 03/11/2024 16:52:43 -0.00,-104.70 0.15,-105.31 70.08 80
4 03/13/2024 16:38:24 -0.01,-104.71 -0.75,-101.22 396.56 80
5 03/14/2024 04:58:33 0.00,-104.71 -0.29,-106.12 160.36 80
6 03/16/2024 04:38:53 0.00,-104.71 0.58,-102.02 306.09 80
7 03/16/2024 16:58:55 -0.00,-104.71 0.43,-106.89 247.14 80
8 03/18/2024 16:44:34 -0.00,-104.72 -0.40,-102.78 219.59 80
9 03/19/2024 05:04:42 0.00,-104.72 -0.63,-107.68 336.85 80
10 03/21/2024 04:45:02 0.01,-104.73 0.23,-103.58 130.32 80
11 03/21/2024 17:05:03 -0.00,-104.73 0.77,-108.45 422.98 80
